Regional Weather Roundup
Issued by NWS

Home | Current Version | Previous Version | Text Only | Print | Product List | Glossary Off
Versions: 1 2 3 4 5 6 7 8 9 10 11 12 13 14 15 16 17 18 19 20 21 22 23 24 25 26 27 28 29 30 31 32 33 34 35 36 37 38 39 40 41 42 43 44 45 46 47 48 49 50

000
ASUS43 KMKX 130000
RWRWI

WISCONSIN REGIONAL WEATHER ROUNDUP
NATIONAL WEATHER SERVICE MILWAUKEE/SULLIVAN WI
700 PM CDT SAT JUL 12 2014

NOTE: "FAIR" INDICATES FEW OR NO CLOUDS BELOW 12,000 FEET WITH NO
SIGNIFICANT WEATHER AND/OR OBSTRUCTIONS TO VISIBILITY.

WIZ001-002-006>008-014>016-023>028-130100-
NORTHWEST WISCONSIN

CITY           SKY/WX    TMP DP  RH WIND       PRES   REMARKS
SUPERIOR ARPT  PTSUNNY   74  63  69 SW8       29.87F
ASHLAND        CLOUDY    71  63  75 CALM      29.88F
6HR MIN TEMP:  68; 6HR MAX TEMP:  74;

HAYWARD        CLOUDY    72  65  78 SW8       29.90F
6HR MIN TEMP:  71; 6HR MAX TEMP:  79; 6HR PCP: TRACE;

SIREN          CLOUDY    73  62  68 W9        29.92F
RICE LAKE      CLOUDY    68  66  92 CALM      29.94F
6HR MIN TEMP:  65; 6HR MAX TEMP:  76;

LADYSMITH      LGT RAIN  66  65  94 SW5       29.96S
EAU CLAIRE     NOT AVBL
MENOMONIE      CLOUDY    68  68  99 CALM      29.94R
6HR MIN TEMP:  67; 6HR MAX TEMP:  76; 6HR PCP:  0.67;

NEW RICHMOND   CLOUDY    71  69  92 SW3       29.93F
OSCEOLA        PTSUNNY   74  62  65 CALM      29.95F
$$

WIZ003>005-009-010-017-018-130100-
NORTH CENTRAL WISCONSIN

CITY           SKY/WX    TMP DP  RH WIND       PRES   REMARKS
WOODRUFF       LGT RAIN  65  61  85 S9        29.93F
RHINELANDER    LGT RAIN  63  62  97 SW7       29.96F
6HR MIN TEMP:  62; 6HR MAX TEMP:  77; 6HR PCP:  0.87;

EAGLE RIVER    LGT RAIN  64  61  91 SW7       29.93F
LAND O LAKES   LGT RAIN  68  60  75 SW6       29.92F
PHILLIPS       LGT RAIN  64  63  96 S8        29.94R
6HR MIN TEMP:  64; 6HR MAX TEMP:  75; 6HR PCP:  0.40;

TOMAHAWK       RAIN      62  61  95 S3        29.97F
MEDFORD        LGT RAIN  63  62  97 CALM      29.98F
MERRILL        LGT RAIN  64  64  97 NW6       29.98F
$$

WIZ029-030-035-036-043>047-130100-
CENTRAL WISCONSIN

CITY           SKY/WX    TMP DP  RH WIND       PRES   REMARKS
WAUSAU         CLOUDY    68  65  90 NW7       29.95S
6HR MIN TEMP:  68; 6HR MAX TEMP:  77; 6HR PCP:  0.10;

MOSINEE        NOT AVBL
MARSHFIELD     LGT RAIN  66  64  93 NW8       29.97S
6HR MIN TEMP:  66; 6HR MAX TEMP:  75; 6HR PCP:  0.04;

STEVENS POINT  LGT RAIN  64  62  94 NW6       29.96S
WAUPACA        LGT RAIN  73  67  83 NW5       29.91F
6HR MIN TEMP:  73; 6HR MAX TEMP:  80;

WAUTOMA        LGT RAIN  75  72  88 CALM      29.91F
WISC RAPIDS    LGT RAIN  66  64  93 NW10      29.97R
6HR MIN TEMP:  65; 6HR MAX TEMP:  78; 6HR PCP:  0.59;

CAMP DOUGLAS   NOT AVBL
$$

WIZ011>013-019>022-031-037>040-048>050-130100-
NORTHEAST WISCONSIN

CITY           SKY/WX    TMP DP  RH WIND       PRES   REMARKS
ANTIGO         HVY RAIN  61  60  98 NW7G17    30.00R
STURGEON BAY   CLOUDY    68  63  83 S5        29.89F
6HR MIN TEMP:  68; 6HR MAX TEMP:  75;

GREEN BAY      LGT RAIN  76  71  85 W5        29.88F
6HR MIN TEMP:  76; 6HR MAX TEMP:  81; 6HR PCP: TRACE;

MANITOWOC      CLOUDY    63  61  94 E3        29.89F
APPLETON       NOT AVBL
CLINTONVILLE   DRIZZLE   73  66  78 NW17G23   29.90S
OSHKOSH        LGT RAIN  74  70  87 CALM      29.89F
6HR MIN TEMP:  74; 6HR MAX TEMP:  78; 6HR PCP: TRACE;

$$

WIZ032>034-041-042-053>061-130100-
SOUTHWEST WISCONSIN

CITY           SKY/WX    TMP DP  RH WIND       PRES   REMARKS
LA CROSSE      LGT RAIN  68  66  93 CALM      29.93F
6HR MIN TEMP:  68; 6HR MAX TEMP:  76; 6HR PCP:  2.99;

SPARTA         LGT RAIN  66  64  94 NW7       29.96S
VIROQUA        CLOUDY    66  66 100 NW9       29.95F
BOSCOBEL       LGT RAIN  72  68  87 N7        29.90F
6HR MIN TEMP:  72; 6HR MAX TEMP:  80; 6HR PCP:  0.08;

PRAIRIE DU CHI RAIN      70  67  89 NW8       29.92S
PLATTEVILLE    CLOUDY    77  73  87 CALM      29.91F
$$

WIZ056-057-062-063-064-067-068-130100-
SOUTH CENTRAL WISCONSIN

CITY           SKY/WX    TMP DP  RH WIND       PRES   REMARKS
BARABOO/DELLS  RAIN      73  70  91 CALM      29.91F
LONE ROCK      CLOUDY    79  72  79 CALM      29.89F HX  82
WATERTOWN      CLOUDY    74  74  98 S3        29.91F FOG
MADISON        CLOUDY    77  72  84 S7        29.90F
6HR MIN TEMP:  77; 6HR MAX TEMP:  79; 6HR PCP:  0.02;

MIDDLETON      MOCLDY    77  75  92 SW6       29.90F
MONROE         DRIZZLE   77  72  83 SE3       29.91F
JANESVILLE     CLOUDY    79  72  78 CALM      29.90F HX  82
$$

WIZ051-052-058>065-066-070>072-130100-
SOUTHEAST WISCONSIN

CITY           SKY/WX    TMP DP  RH WIND       PRES   REMARKS
MILWAUKEE      LGT RAIN  75  71  87 S6        29.91F
6HR MIN TEMP:  75; 6HR MAX TEMP:  77; 6HR PCP:  0.01;

WAUKESHA       CLOUDY    72  70  94 SW7       29.93F FOG
MILWAUKEE/TIMM DRIZZLE   73  70  88 CALM      29.91F FOG
RACINE         CLOUDY    75  72  90 SW3       29.93F
6HR MIN TEMP:  74; 6HR MAX TEMP:  79; 6HR PCP:  0.06;

BURLINGTON     CLOUDY    73  72  96 S3        29.92F FOG
KENOSHA        CLOUDY    77  72  84 CALM      29.92F
6HR MIN TEMP:  74; 6HR MAX TEMP:  79; 6HR PCP: TRACE;

FOND DU LAC    CLOUDY    74  70  87 SW3       29.90F
6HR MIN TEMP:  73; 6HR MAX TEMP:  78; 6HR PCP:  0.01;

SHEBOYGAN      CLOUDY    74  70  87 SW5       29.89F
6HR MIN TEMP:  73; 6HR MAX TEMP:  78; 6HR PCP: TRACE;

WEST BEND      LGT RAIN  72  68  88 S3        29.90F
JUNEAU         CLOUDY    73  56  55 S6        29.92F HAZE
$$

LSZ147-162-130100-
LAKE SUPERIOR

STATION/POSITION TIME  TEMP    WIND        PRES    WAVE
                       AIR SEA DIR/SP/G            HT/PER
                 (UTC) (F)     (DEG/KT/KT) (MB)    (FT/S)
W MID LAKE BUOY  2250   47 39  250/  2/  4 1011.8F   0
PORT WING        2340   73     200/  4/  7 1011.5F
SAXON HARBOR     2300           CALM  / 18 1011.9F
$$

LMZ867-665-643>646-130100-
LAKE MICHIGAN

STATION/POSITION TIME  TEMP    WIND        PRES    WAVE
                       AIR SEA DIR/SP/G            HT/PER
                 (UTC) (F)     (DEG/KT/KT) (MB)    (FT/S)
N MID LAKE BUOY  2250   58 56  200/ 10/ 12 1012.1F   2/ 4
NORTHPORT PIER   2300   68     160/  4/  7 1011.9F
KEWAUNEE LAKESHO 2300   55     160/  6/  6 1013.2F
SHEBOYGAN LAKESH 2300   74        CALM     1012.8F
PORT WASHINGTON  2300   68     250/  2/  4 1013.9S
MILWAUKEE LAKESH 2300   76     270/  8/ 11   N/A
S MID LAKE BUOY  2250   63 61  160/ 10/ 10 1014.4F   1/ 4
KENOSHA   LAKESH 2300   79     240/  6/  8   N/A
$$

TC  - TEMPERATURE IN CELSIUS
VSB - VISIBILITY IN STATUTE MILES
WCI - WIND CHILL INDEX
HX  - HEAT INDEX



USA.gov is the U.S. government's official web portal to all federal, state and local government web resources and services.